Tracking 30703 objects as of 12-Jun-2025
HD Live streaming from Space Station
objects crossing your sky now

ATLAS 5 CENTAUR DEB

Track ATLAS 5 CENTAUR DEB now!


NORAD ID: 55857
Int'l Code: 2018-079HH
Perigee: 8,142.4 km
Apogee: 32,312.6 km
Inclination: 13.6 °
Period: 719.5 minutes
Semi major axis: 26598 km
RCS: Unknown
Launch date: October 17, 2018
Source: United States (US)
Launch site: AIR FORCE EASTERN TEST RANGE (AFETR)

Note: This is SATELLITE DEBRIS
Your satellite tracking list
Your tracking list is empty




NASA's NSSDC Master Catalog

Two Line Element Set (TLE):
1 55857U 18079HK  25163.22919130 -.00000082  00000-0  00000+0 0  9999
2 55857  13.5965  26.2313 4543521 334.8780   8.6330  2.00131909 19303
Source of the keplerian elements: AFSPC